Regional Weather Roundup
Issued by NWS

Home | Current Version | Previous Version | Graphics & Text | Print | Product List | Glossary On
Versions: 1 2 3 4 5 6 7 8 9 10 11 12 13 14 15 16 17 18 19 20 21 22 23 24 25 26 27 28 29 30 31 32 33 34 35 36 37 38 39 40 41 42 43 44 45 46 47 48 49 50
000
ASUS43 KFSD 221302
RWRSD

WEATHER ROUNDUP FOR SOUTH DAKOTA
NATIONAL WEATHER SERVICE SIOUX FALLS SD
700 AM CST MON DEC 22 2014

NOTE: "FAIR" INDICATES FEW OR NO CLOUDS BELOW 12,000 FEET WITH NO
SIGNIFICANT WEATHER AND/OR OBSTRUCTIONS TO VISIBILITY.


SDZ001>005-009-010-012>017-221400-
NORTHWEST AND NORTH CENTRAL SOUTH DAKOTA

CITY           SKY/WX    TMP DP  RH WIND       PRES   REMARKS
BUFFALO          N/A     36  28  73 NW25G35   29.45R
FAITH            N/A     37  30  75 NW23G35   29.46S
MOBRIDGE       CLOUDY    30  29  96 CALM      29.40S FOG
$$

SDZ012>016-024>037-041>051-057-063-072>074-221400-
SOUTHWEST AND SOUTH CENTRAL SOUTH DAKOTA

CITY           SKY/WX    TMP DP  RH WIND       PRES   REMARKS
RAPID CTY ARPT MOCLDY    42  22  44 NW36G45   29.53R
PIERRE         CLOUDY    38  34  85 NW16      29.44R
CUSTER         CLOUDY    29  21  72 NW12G17   29.56R WCI  19
ELLSWORTH AFB  PTCLDY    40  24  52 NW30G39   29.52R
PHILIP         CLOUDY    39  31  72 W16G24    29.51R
PINE RIDGE     CLOUDY    35  29  78 NW10      29.59R WCI  27
WINNER         CLOUDY    39  34  82 W18G25    29.48R
$$

SDZ004>011-016>023-039-040-221400-
NORTHEAST SOUTH DAKOTA

CITY           SKY/WX    TMP DP  RH WIND       PRES   REMARKS
ABERDEEN       FOG       33  32  96 S6        29.43R VSB 1/4 WCI  28
WATERTOWN      MIX PCPN  36  35  96 SE10      29.43S
SISSETON         N/A     35  35 100 S6        29.46R
$$

SDZ017-020-022-023-036>040-048>070-221400-
SOUTHEAST SOUTH DAKOTA

CITY           SKY/WX    TMP DP  RH WIND       PRES   REMARKS
SIOUX FALLS    LGT RAIN  40  39  97 S10       29.46S
HURON          CLOUDY    31  29  92 W8        29.44R WCI  23
MITCHELL       CLOUDY    35  33  92 W7        29.45R WCI  29
YANKTON        CLOUDY    39  37  93 S3        29.47S
$$

ABBREVIATIONS USED IN REMARKS
   TC - TEMPERATURE IN CELSIUS
  WCI - WIND CHILL INDEX
   HX - HEAT INDEX
  VSB - VISIBILITY




USA.gov is the U.S. government's official web portal to all federal, state and local government web resources and services.